Location: Châteauvieux
(47.2310°N, 1.3828°E)
Time: 23:39:07
(UTC+00:00)

COSMOS 2406 - Pass Details

Date: 15 May 2026
Orbit: 846 x 858 km, 71.0° (Epoch: 11 June)

Event Time Altitude Azimuth Distance (km) Brightness Sun altitude
Rises 21:21:14 0° 221° (SW) 3,421 6.2 -15.7°
Reaches altitude 10° 21:23:45 10° 226° (SW) 2,488 5.6 -15.9°
Maximum altitude 21:29:21 53° 303° (WNW) 1,049 4.0 -16.5°
Drops below altitude 10° 21:34:58 10° 20° (NNE) 2,499 6.1 -17.0°
Sets 21:37:30 0° 25° (NNE) 3,438 6.8 -17.3°
